Location: Bats
(43.6587°N, 0.4584°W)
Time: 13:40:08
(UTC+00:00)

NOSS 3-4 (A) - Visible Passes

Search period start: 11 April 2026 00:00
Search period end: 21 April 2026 00:00
Orbit: 769 x 1442 km, 63.4° (Epoch: 10 January)

Date Brightness Start Highest point End Pass type
(mag) Time Alt. Az. Time Alt. Az. Time Alt. Az.
11 Apr 5.9 00:45:21 10° NW 00:48:09 14° NNW 00:51:08 10° NNE visible
11 Apr 6.1 02:38:44 10° NNW 02:42:00 14° NNE 02:45:30 10° NE visible
11 Apr 5.5 04:28:53 10° NNW 04:34:56 35° NE 04:41:52 10° ESE visible
11 Apr 5.0 20:23:13 13° ENE 20:23:13 13° ENE 20:24:06 10° ENE visible
11 Apr 3.7 22:10:28 54° NNW 22:10:28 54° NNW 22:15:50 10° NNE visible
11 Apr 5.8 23:58:58 10° WNW 00:02:27 16° NNW 00:06:10 10° NNE visible
12 Apr 6.2 01:53:40 10° NNW 01:56:12 12° N 01:58:52 10° NNE visible
12 Apr 5.9 03:44:08 10° NNW 03:49:32 26° NE 03:55:38 10° E visible
12 Apr 4.8 19:36:27 12° E 19:36:27 12° E 19:37:29 10° E visible
12 Apr 3.0 21:23:23 44° SW 21:25:08 89° WNW 21:30:52 10° NE visible
12 Apr 5.5 23:12:45 10° WNW 23:16:51 21° NNW 23:21:20 10° NNE visible
13 Apr 6.2 01:08:08 10° NNW 01:10:21 12° N 01:12:40 10° NNE visible
13 Apr 6.1 02:59:22 10° NNW 03:04:00 20° NNE 03:09:08 10° ENE visible
13 Apr 4.6 04:49:29 10° NNW 04:56:11 60° NE 05:04:04 10° SE visible
13 Apr 3.1 20:35:13 10° SSW 20:40:16 54° ESE 20:45:45 10° NE visible
13 Apr 5.0 22:26:47 10° W 22:31:25 29° NW 22:36:30 10° NNE visible
14 Apr 6.2 00:22:02 10° NW 00:24:31 13° N 00:27:07 10° NNE visible
14 Apr 6.2 02:14:34 10° NNW 02:18:20 16° NNE 02:22:25 10° NE visible
14 Apr 5.1 04:04:40 10° NNW 04:11:00 43° NE 04:18:21 10° ESE visible
14 Apr 3.7 19:51:01 10° S 19:55:34 31° ESE 20:00:24 10° NE visible
14 Apr 4.3 21:41:08 10° WSW 21:46:09 42° NW 21:51:40 10° NNE visible
14 Apr 6.1 23:35:40 10° NW 23:38:45 15° NNW 23:42:02 10° NNE visible
15 Apr 6.3 01:29:38 10° NNW 01:32:34 13° NNE 01:35:41 10° NE visible
15 Apr 5.6 03:19:54 10° NNW 03:25:41 31° NE 03:32:18 10° E visible
15 Apr 3.4 20:55:49 10° SW 21:01:01 67° NW 21:06:46 10° NNE visible
15 Apr 5.8 22:49:20 10° WNW 22:53:05 18° NNW 22:57:08 10° NNE visible
16 Apr 6.4 00:44:24 10° NNW 00:46:44 12° N 00:49:11 10° NNE visible
16 Apr 6.0 02:35:08 10° NNW 02:40:14 23° NNE 02:45:56 10° E visible
16 Apr 4.2 04:25:19 10° NW 04:32:09 74° NE 04:40:12 10° SE visible
16 Apr 3.0 20:10:53 10° SSW 20:16:05 75° ESE 20:21:45 10° NE visible
16 Apr 5.4 22:03:12 10° W 22:07:33 24° NNW 22:12:18 10° NNE visible
16 Apr 6.4 23:58:38 10° NNW 00:00:54 12° N 00:03:15 10° NNE visible
17 Apr 6.2 01:50:22 10° NNW 01:54:38 18° NNE 01:59:20 10° ENE visible
17 Apr 4.7 03:40:28 10° NNW 03:47:02 52° NE 03:54:43 10° ESE visible
17 Apr 3.4 19:26:23 10° S 19:31:17 43° ESE 19:36:33 10° NE visible
17 Apr 4.8 21:17:22 10° WSW 21:22:11 34° NW 21:27:29 10° NNE visible
17 Apr 6.3 23:12:23 10° NW 23:15:05 13° NNW 23:17:57 10° NNE visible
18 Apr 6.4 01:05:32 10° NNW 01:08:56 15° NNE 01:12:36 10° NE visible
18 Apr 5.3 02:55:40 10° NNW 03:01:47 37° NE 03:08:52 10° ESE visible
18 Apr 4.0 20:31:51 10° WSW 20:36:58 51° NW 20:42:37 10° NNE visible
18 Apr 6.0 22:26:00 10° WNW 22:29:21 16° NNW 22:32:57 10° NNE visible
19 Apr 6.4 00:20:30 10° NNW 00:23:08 13° N 00:25:55 10° NE visible
19 Apr 5.7 02:10:54 10° NNW 02:16:25 27° NE 02:22:40 10° E visible
19 Apr 3.9 04:01:11 10° NW 04:08:05 90° SW 04:16:13 10° SE visible
19 Apr 3.2 19:46:41 10° SW 19:51:56 82° NW 19:57:40 10° NE visible
19 Apr 5.7 21:39:45 10° WNW 21:43:45 20° NNW 21:48:06 10° NNE visible
19 Apr 6.4 23:35:04 10° NNW 23:37:18 12° N 23:39:37 10° NNE visible
20 Apr 6.0 01:26:09 10° NNW 01:30:54 21° NNE 01:36:12 10° ENE visible
20 Apr 4.3 03:16:17 10° NNW 03:23:01 64° NE 03:30:57 10° SE visible
20 Apr 5.3 20:53:43 10° W 20:58:17 27° NW 21:03:17 10° NNE visible
20 Apr 6.4 22:49:04 10° NNW 22:51:28 12° N 22:53:58 10° NNE visible
